Northeast Philadelphia, PA

10:27 PM EDT on August 17, 2017 (GMT -0400)
Northeast Philadelphia

Weather History for KPNE - October, 2014

Change the Weather History Date:

Thursday, October 30, 2014

  Actual Average Record
Temperature  
Mean Temperature 52 °F -  
Max Temperature 62 °F 58 °F 79 °F (2016)
Min Temperature 42 °F 40 °F 33 °F (2011)
Degree Days  
Heating Degree Days 12    
Growing Degree Days 2 (Base 50)    
Moisture  
Dew Point 40 °F    
Average Humidity 72    
Maximum Humidity 90    
Minimum Humidity 41    
Precipitation  
Precipitation 0.00 in - - ()
Sea Level Pressure  
Sea Level Pressure 30.01 in    
Wind  
Wind Speed 4 mph (NW)    
Max Wind Speed 14 mph    
Max Gust Speed -    
Visibility 6 miles    
Events Fog    
Averages and records for this station are not official NWS values.
T = Trace of Precipitation, MM = Missing Value Source: NWS Daily Summary

Daily Weather History Graph

Daily Weather History Graph

Search for Another Location

Airport or City:

Trip Planner

Search our weather history database for the weather conditions in past years. The results will help you decide how hot, cold, wet, or windy it might be!

Date:

Astronomy

Oct. 30, 2014 Rise Set
Actual Time 7:26 AM EDT 5:59 PM EDT
Civil Twilight 6:58 AM EDT 6:27 PM EDT
Nautical Twilight 6:26 AM EDT 6:59 PM EDT
Astronomical Twilight 5:55 AM EDT 7:31 PM EDT
Moon 1:29 PM EDT (10/30) No Moon Set
Length of Visible Light 11h 28m
Length of Day
10h 32m
Waxing Crescent, 45% of the Moon is Illuminated
Oct 30
Waxing Crescent
Oct 30
First Quarter
Nov 6
Full
Nov 14
Last Quarter
Nov 22
New

Hourly Weather History & Observations

Time (EDT) Temp. Windchill Dew Point Humidity Pressure Visibility Wind Dir Wind Speed Gust Speed Precip Events Conditions
12:54 AM 48.9 °F - 46.0 °F 90% 29.99 in 1.8 mi Calm Calm - N/A   Partly Cloudy
12:59 AM 48.0 °F - 44.1 °F 86% 29.99 in 0.8 mi NW 3.5 mph - N/A   Mist
1:06 AM 50.0 °F - 45.0 °F 83% 29.99 in 1.2 mi WNW 3.5 mph - N/A   Haze
1:15 AM 48.0 °F - 44.1 °F 86% 29.99 in 0.8 mi Calm Calm - N/A   Mist
1:54 AM 48.0 °F - 44.1 °F 86% 29.98 in 0.2 mi WNW 3.5 mph - N/A Fog Fog
2:07 AM 48.0 °F - 44.1 °F 86% 29.98 in 0.2 mi Calm Calm - N/A Fog Fog
2:54 AM 48.0 °F - 45.0 °F 89% 29.99 in 0.2 mi WNW 4.6 mph - N/A Fog Fog
3:34 AM 48.0 °F - 44.1 °F 86% 29.98 in 1.2 mi NW 4.6 mph - N/A   Mostly Cloudy
3:45 AM 48.0 °F - 44.1 °F 86% 29.97 in 0.5 mi NW 4.6 mph - N/A Fog Fog
3:54 AM 48.0 °F - 44.1 °F 86% 29.97 in 0.5 mi NW 5.8 mph - N/A Fog Fog
4:17 AM 46.9 °F - 44.1 °F 90% 29.98 in 2.0 mi WNW 5.8 mph - N/A   Mostly Cloudy
4:22 AM 46.9 °F - 44.1 °F 90% 29.98 in 3.0 mi WNW 5.8 mph - N/A   Scattered Clouds
4:54 AM 46.9 °F - 43.0 °F 86% 29.98 in 4.0 mi Calm Calm - N/A   Clear
5:08 AM 46.0 °F - 42.1 °F 86% 29.99 in 1.5 mi Calm Calm - N/A   Clear
5:16 AM 45.0 °F - 41.0 °F 86% 29.99 in 0.5 mi Calm Calm - N/A Fog Fog
5:20 AM 46.0 °F 44.8 °F 41.0 °F 83% 29.99 in 1.2 mi West 3.5 mph - N/A   Haze
5:29 AM 46.4 °F - 42.8 °F 87% 29.99 in 2.0 mi Calm Calm - N/A   Clear
5:54 AM 46.0 °F - 42.1 °F 86% 30.00 in 2.5 mi Calm Calm - N/A   Clear
6:01 AM 44.6 °F 43.1 °F 41.0 °F 87% 29.99 in 7.0 mi NW 3.5 mph - N/A   Clear
6:54 AM 46.0 °F 43.1 °F 41.0 °F 83% 30.00 in 8.0 mi NW 5.8 mph - N/A   Clear
7:54 AM 46.0 °F 42.5 °F 41.0 °F 83% 30.02 in 8.0 mi NW 6.9 mph - N/A   Clear
8:54 AM 50.0 °F - 41.0 °F 71% 30.04 in 10.0 mi NW 8.1 mph - N/A   Clear
9:54 AM 53.1 °F - 41.0 °F 64% 30.04 in 10.0 mi NNW 10.4 mph - N/A   Clear
10:54 AM 55.9 °F - 37.9 °F 51% 30.04 in 10.0 mi North 9.2 mph - N/A   Clear
11:54 AM 59.0 °F - 37.9 °F 46% 30.04 in 10.0 mi NNW 9.2 mph - N/A   Unknown
12:54 PM 59.0 °F - 37.0 °F 44% 30.02 in 10.0 mi NNW 9.2 mph - N/A   Clear
1:54 PM 60.1 °F - 36.0 °F 41% 30.01 in 10.0 mi NW 9.2 mph - N/A   Partly Cloudy
2:54 PM 61.0 °F - 37.9 °F 42% 30.00 in 10.0 mi NNW 11.5 mph - N/A   Mostly Cloudy
3:54 PM 57.9 °F - 35.1 °F 42% 30.00 in 10.0 mi North 13.8 mph - N/A   Mostly Cloudy
4:54 PM 57.9 °F - 34.0 °F 41% 30.00 in 10.0 mi NNW 5.8 mph - N/A   Partly Cloudy
5:54 PM 55.0 °F - 34.0 °F 45% 30.02 in 10.0 mi NNW 10.4 mph - N/A   Clear
6:54 PM 51.1 °F - 34.0 °F 52% 30.04 in 10.0 mi North 6.9 mph - N/A   Clear
7:54 PM 51.1 °F - 33.1 °F 50% 30.05 in 10.0 mi North 10.4 mph - N/A   Clear
8:54 PM 46.9 °F - 32.0 °F 56% 30.06 in 10.0 mi Calm Calm - N/A   Clear
9:54 PM 44.1 °F 40.8 °F 32.0 °F 63% 30.06 in 10.0 mi North 5.8 mph - N/A   Clear
10:54 PM 46.0 °F 44.8 °F 32.0 °F 58% 30.06 in 10.0 mi NNW 3.5 mph - N/A   Clear
11:54 PM 42.1 °F - 33.1 °F 70% 30.05 in 10.0 mi Calm Calm - N/A   Clear